Time,TemperatureF,DewpointF,PressureIn,WindDirection,WindDirectionDegrees,WindSpeedMPH,WindSpeedGustMPH,Humidity,HourlyPrecipIn,Conditions,Clouds,dailyrainin,SoftwareType,DateUTC
2013-03-18 11:33:00,28.0,15.0,30.28,SE,143,2.0,9.0,58,-99.99,,,-99.99,,2013-03-18 15:33:00,
2013-03-18 11:43:00,28.0,15.0,30.28,SE,143,2.0,9.0,58,-99.99,,,-99.99,,2013-03-18 15:43:00,
2013-03-18 11:52:00,29.0,16.0,30.27,ESE,103,2.0,13.0,59,-99.99,,,-99.99,,2013-03-18 15:52:00,
2013-03-18 12:03:00,29.0,16.0,30.27,ESE,121,1.0,11.0,59,-99.99,,,-99.99,,2013-03-18 16:03:00,
2013-03-18 12:12:00,29.0,16.0,30.27,ESE,121,1.0,11.0,59,-99.99,,,-99.99,,2013-03-18 16:12:00,
2013-03-18 12:23:00,30.0,17.0,30.27,SE,146,3.0,11.0,59,-99.99,,,-99.99,,2013-03-18 16:23:00,
2013-03-18 12:32:00,30.0,17.0,30.27,SSE,147,2.0,11.0,59,0.00,,,-99.99,,2013-03-18 16:32:00,
2013-03-18 12:42:00,30.0,17.0,30.27,SSE,147,2.0,11.0,59,0.00,,,-99.99,,2013-03-18 16:42:00,
2013-03-18 12:52:00,30.0,17.0,30.26,South,189,5.0,13.0,59,0.00,,,-99.99,,2013-03-18 16:52:00,
2013-03-18 13:02:00,31.0,19.0,30.25,NE,55,4.0,8.0,60,0.00,,,-99.99,,2013-03-18 17:02:00,
2013-03-18 13:12:00,31.0,19.0,30.25,NE,55,4.0,8.0,60,0.00,,,-99.99,,2013-03-18 17:12:00,
2013-03-18 13:22:00,31.0,19.0,30.24,ESE,107,3.0,7.0,60,0.00,,,-99.99,,2013-03-18 17:22:00,
2013-03-18 13:32:00,31.0,19.0,30.22,ESE,123,2.0,11.0,60,0.00,,,-99.99,,2013-03-18 17:32:00,
2013-03-18 13:42:00,31.0,19.0,30.22,ESE,123,2.0,11.0,60,0.00,,,-99.99,,2013-03-18 17:42:00,
2013-03-18 13:52:00,31.0,19.0,30.22,South,184,3.0,7.0,61,0.00,,,-99.99,,2013-03-18 17:52:00,
2013-03-18 14:02:00,31.0,20.0,30.21,ESE,115,1.0,12.0,62,0.00,,,-99.99,,2013-03-18 18:02:00,
2013-03-18 14:12:00,31.0,20.0,30.21,ESE,115,1.0,12.0,62,0.00,,,-99.99,,2013-03-18 18:12:00,
2013-03-18 14:22:00,31.0,20.0,30.20,East,98,4.0,10.0,63,0.00,,,-99.99,,2013-03-18 18:22:00,
2013-03-18 14:32:00,31.0,20.0,30.19,SE,145,4.0,8.0,63,0.00,,,-99.99,,2013-03-18 18:32:00,
2013-03-18 14:42:00,31.0,20.0,30.19,SE,145,4.0,8.0,63,0.00,,,-99.99,,2013-03-18 18:42:00,
2013-03-18 14:52:00,31.0,20.0,30.18,ESE,111,6.0,11.0,63,0.00,,,-99.99,,2013-03-18 18:52:00,
2013-03-18 15:02:00,31.0,20.0,30.17,SSE,155,3.0,10.0,64,0.00,,,-99.99,,2013-03-18 19:02:00,
2013-03-18 15:12:00,31.0,20.0,30.17,SSE,155,3.0,10.0,64,0.00,,,-99.99,,2013-03-18 19:12:00,
2013-03-18 15:22:00,31.0,21.0,30.17,SSE,161,3.0,6.0,65,0.00,,,0.00,,2013-03-18 19:22:00,
2013-03-18 15:33:00,31.0,21.0,30.16,SSE,166,3.0,11.0,66,0.00,,,0.00,,2013-03-18 19:33:00,
2013-03-18 15:42:00,31.0,21.0,30.16,SSE,166,3.0,11.0,66,0.00,,,0.00,,2013-03-18 19:42:00,
2013-03-18 15:52:00,31.0,21.0,30.16,ESE,118,5.0,12.0,66,0.00,,,0.00,,2013-03-18 19:52:00,
2013-03-18 16:02:00,30.0,20.0,30.16,ESE,109,5.0,10.0,67,0.00,,,0.00,,2013-03-18 20:02:00,
2013-03-18 16:12:00,30.0,20.0,30.16,ESE,109,5.0,10.0,67,0.00,,,0.00,,2013-03-18 20:12:00,
2013-03-18 16:23:00,30.0,21.0,30.14,South,180,1.0,9.0,69,0.00,,,0.00,,2013-03-18 20:23:00,
2013-03-18 16:33:00,29.0,22.0,30.14,SE,144,6.0,11.0,74,0.00,,,0.00,,2013-03-18 20:33:00,
2013-03-18 16:42:00,29.0,22.0,30.14,SE,144,6.0,11.0,74,0.00,,,0.00,,2013-03-18 20:42:00,
2013-03-18 16:52:00,28.0,23.0,30.14,SSE,149,3.0,12.0,80,0.00,,,0.00,,2013-03-18 20:52:00,
2013-03-18 17:02:00,28.0,24.0,30.12,SE,143,3.0,13.0,85,0.00,,,0.00,,2013-03-18 21:02:00,
2013-03-18 17:12:00,28.0,24.0,30.12,SE,143,3.0,13.0,85,0.00,,,0.00,,2013-03-18 21:12:00,
2013-03-18 17:22:00,27.0,24.0,30.13,South,175,1.0,6.0,88,0.00,,,0.00,,2013-03-18 21:22:00,
2013-03-18 17:32:00,27.0,24.0,30.11,SSE,148,4.0,9.0,90,0.00,,,0.00,,2013-03-18 21:32:00,
2013-03-18 17:42:00,27.0,24.0,30.11,SSE,148,4.0,9.0,90,0.00,,,0.00,,2013-03-18 21:42:00,
2013-03-18 17:53:00,27.0,24.0,30.10,ESE,119,0.0,12.0,90,0.00,,,0.00,,2013-03-18 21:53:00,
2013-03-18 18:03:00,26.0,24.0,30.07,SSE,162,6.0,14.0,91,0.00,,,0.00,,2013-03-18 22:03:00,
2013-03-18 18:13:00,26.0,24.0,30.07,SSE,162,6.0,14.0,91,0.00,,,0.00,,2013-03-18 22:13:00,
2013-03-18 18:23:00,26.0,24.0,30.06,South,178,6.0,12.0,91,0.00,,,0.00,,2013-03-18 22:23:00,
2013-03-18 18:33:00,26.0,24.0,30.06,SSE,150,6.0,12.0,92,0.00,,,0.00,,2013-03-18 22:33:00,
2013-03-18 18:42:00,26.0,24.0,30.06,SSE,150,6.0,12.0,92,0.00,,,0.00,,2013-03-18 22:42:00,
2013-03-18 18:53:00,26.0,24.0,30.07,SSE,155,4.0,16.0,93,0.00,,,0.00,,2013-03-18 22:53:00,
2013-03-18 19:03:00,26.0,24.0,30.06,SE,128,2.0,11.0,93,0.00,,,0.00,,2013-03-18 23:03:00,
2013-03-18 19:12:00,26.0,24.0,30.06,SE,128,2.0,11.0,93,0.00,,,0.00,,2013-03-18 23:12:00,
2013-03-18 19:23:00,26.0,24.0,30.06,North,360,3.0,7.0,93,0.00,,,0.00,,2013-03-18 23:23:00,
2013-03-18 19:32:00,26.0,24.0,30.06,SE,146,2.0,10.0,93,0.00,,,0.00,,2013-03-18 23:32:00,
2013-03-18 19:42:00,26.0,24.0,30.06,SE,146,2.0,10.0,93,0.00,,,0.00,,2013-03-18 23:42:00,
2013-03-18 19:53:00,26.0,25.0,30.05,ESE,123,5.0,10.0,94,0.00,,,0.00,,2013-03-18 23:53:00,
2013-03-18 20:02:00,26.0,25.0,30.04,South,174,4.0,11.0,94,0.00,,,0.00,,2013-03-19 00:02:00,
2013-03-18 20:12:00,26.0,25.0,30.04,South,174,4.0,11.0,94,0.00,,,0.00,,2013-03-19 00:12:00,
2013-03-18 20:22:00,26.0,25.0,30.04,SSE,155,2.0,11.0,94,0.00,,,0.00,,2013-03-19 00:22:00,
2013-03-18 20:32:00,27.0,26.0,30.04,SSE,165,3.0,12.0,94,0.00,,,0.00,,2013-03-19 00:32:00,
2013-03-18 20:42:00,27.0,26.0,30.04,SSE,165,3.0,12.0,94,0.00,,,0.00,,2013-03-19 00:42:00,
2013-03-18 20:52:00,27.0,26.0,30.03,ESE,112,5.0,10.0,94,0.00,,,0.00,,2013-03-19 00:52:00,
2013-03-18 21:02:00,27.0,26.0,30.03,SE,134,3.0,9.0,94,0.00,,,0.00,,2013-03-19 01:02:00,
2013-03-18 21:12:00,27.0,26.0,30.03,SE,134,3.0,9.0,94,0.00,,,0.00,,2013-03-19 01:12:00,
2013-03-18 21:22:00,27.0,26.0,30.01,SSE,159,4.0,15.0,94,0.00,,,0.00,,2013-03-19 01:22:00,
2013-03-18 21:32:00,27.0,26.0,30.01,SSE,153,3.0,12.0,94,0.00,,,0.00,,2013-03-19 01:32:00,
2013-03-18 21:42:00,27.0,26.0,30.01,SSE,153,3.0,12.0,94,0.00,,,0.00,,2013-03-19 01:42:00,
2013-03-18 21:52:00,27.0,26.0,30.01,SE,141,6.0,12.0,94,0.00,,,0.00,,2013-03-19 01:52:00,
2013-03-18 22:02:00,28.0,27.0,30.00,ESE,117,5.0,12.0,94,0.00,,,0.00,,2013-03-19 02:02:00,
2013-03-18 22:12:00,28.0,27.0,30.00,ESE,117,5.0,12.0,94,0.00,,,0.00,,2013-03-19 02:12:00,
2013-03-18 22:22:00,28.0,27.0,30.00,SE,142,5.0,20.0,94,0.00,,,0.00,,2013-03-19 02:22:00,
2013-03-18 22:33:00,28.0,27.0,29.98,SSE,166,7.0,14.0,95,0.00,,,0.00,,2013-03-19 02:33:00,
2013-03-18 22:42:00,28.0,27.0,29.98,SSE,166,7.0,14.0,95,0.00,,,0.00,,2013-03-19 02:42:00,
2013-03-18 22:52:00,28.0,27.0,29.98,ESE,121,1.0,13.0,95,0.00,,,0.00,,2013-03-19 02:52:00,
2013-03-18 23:02:00,29.0,28.0,29.98,SSE,155,6.0,16.0,95,0.00,,,0.00,,2013-03-19 03:02:00,
2013-03-18 23:12:00,29.0,28.0,29.98,SSE,155,6.0,16.0,95,0.00,,,0.00,,2013-03-19 03:12:00,
2013-03-18 23:22:00,29.0,28.0,29.97,SE,130,4.0,12.0,95,0.00,,,0.00,,2013-03-19 03:22:00,
2013-03-18 23:33:00,29.0,28.0,29.96,SE,133,5.0,11.0,95,0.00,,,0.00,,2013-03-19 03:33:00,
2013-03-18 23:43:00,29.0,28.0,29.96,SE,133,5.0,11.0,95,0.00,,,0.00,,2013-03-19 03:43:00,
2013-03-18 23:54:00,29.0,28.0,29.93,South,175,3.0,12.0,95,0.00,,,0.00,,2013-03-19 03:54:00,